Location: Ertinghausen
(51.6624°N, 9.7874°E)
Time: 09:13:02
(UTC+00:00)

Geosat - Pass Details

Date: 23 May 2024
Orbit: 760 x 763 km, 108.1° (Epoch: 24 June)

Event Time Altitude Azimuth Distance (km) Brightness Sun altitude
Rises 02:24:51 0° 152° (SSE) 3,212 7.0 -6.9°
Reaches altitude 10° 02:27:08 10° 154° (SSE) 2,291 6.3 -6.7°
Maximum altitude 02:32:07 75° 240° (WSW) 792 4.0 -6.1°
Drops below altitude 10° 02:37:09 10° 327° (NNW) 2,308 6.6 -5.6°
Sets 02:39:27 0° 329° (NNW) 3,239 7.4 -5.3°
